This is the latest recevied weather packets stored in our database for station/object KE5YIM-13. If no packets are shown the sender has not sent any weather packets the latest 10 day(s).
| Time | Temp. | Humidity | Pressure | Rain* | Wind** | Luminosity | Snow |
|---|---|---|---|---|---|---|---|
| 1777563883 | 10° C | 97% | 1008.9 hPa | 0 mm | - | 162 W/m² | - |
| 1777563579 | 10° C | 98% | 1009 hPa | 0 mm | - | 130 W/m² | - |
| 1777563278 | 10° C | 98% | 1008.8 hPa | 0 mm | - | 146 W/m² | - |
| 1777562975 | 10° C | 98% | 1008.6 hPa | 0 mm | - | 146 W/m² | - |
| 1777562671 | 9.44° C | 98% | 1008.7 hPa | 0 mm | - | 131 W/m² | - |
| 1777562371 | 9.44° C | 98% | 1008.8 hPa | 0 mm | - | 122 W/m² | - |
| 1777562067 | 10° C | 98% | 1008.7 hPa | 0 mm | - | 109 W/m² | - |
| 1777561765 | 10° C | 98% | 1008.8 hPa | 0 mm | - | 110 W/m² | - |
| 1777561460 | 10° C | 98% | 1008.7 hPa | 0 mm | - | 99 W/m² | - |
| 1777561156 | 10° C | 98% | 1008.8 hPa | 0 mm | - | 102 W/m² | - |
| 1777560856 | 10° C | 98% | 1008.9 hPa | 0 mm | - | 86 W/m² | - |
| 1777560554 | 9.44° C | 99% | 1008.9 hPa | 0 mm | - | 137 W/m² | - |
| 1777560252 | 10° C | 99% | 1008.6 hPa | 0 mm | - | 105 W/m² | - |
| 1777559949 | 9.44° C | 99% | 1008.8 hPa | 0 mm | - | 150 W/m² | - |
| 1777559649 | 9.44° C | 99% | 1008.7 hPa | 0 mm | - | 134 W/m² | - |
| 1777559348 | 9.44° C | 99% | 1008.8 hPa | 0 mm | - | 66 W/m² | - |
| 1777559043 | 9.44° C | 99% | 1008.8 hPa | 0 mm | - | 55 W/m² | - |
| 1777558738 | 9.44° C | 99% | 1008.9 hPa | 0 mm | - | 51 W/m² | - |
| 1777558434 | 9.44° C | 99% | 1008.9 hPa | 0 mm | - | 54 W/m² | - |
| 1777558130 | 9.44° C | 99% | 1009 hPa | 0 mm | - | 77 W/m² | - |
| 1777557828 | 9.44° C | 99% | 1008.8 hPa | 0 mm | - | 54 W/m² | - |
| 1777557524 | 9.44° C | 99% | 1008.7 hPa | 0 mm | - | 76 W/m² | - |
| 1777557221 | 9.44° C | 99% | 1008.7 hPa | 0 mm | - | 68 W/m² | - |
| 1777556917 | 9.44° C | 99% | 1008.8 hPa | 0 mm | - | 55 W/m² | - |
| 1777556612 | 9.44° C | 99% | 1008.7 hPa | 0 mm | - | 51 W/m² | - |
* Rain latest hour (hover to see other rain measurements)
** Current wind speed in m/s (hover to see current wind gust speed)